Stations météo

Publicité
Gourdon, France (7535): Température de l'air & dewpoint: 08.11.2018 09:00:00 - 14.11.2018 09:00:00 (CET)Gourdon, France (7535): Température de l'air 5cm: 08.11.2018 09:00:00 - 14.11.2018 09:00:00 (CET)Gourdon, France (7535): Température de l'air -20cm & Température de l'air -100cm: 08.11.2018 09:00:00 - 14.11.2018 09:00:00 (CET)Gourdon, France (7535): Vitesse du vent & gusts: 08.11.2018 09:00:00 - 14.11.2018 09:00:00 (CET)Gourdon, France (7535): Direction du vent: 08.11.2018 09:00:00 - 14.11.2018 09:00:00 (CET)Gourdon, France (7535): reduced air pressure: 08.11.2018 09:00:00 - 14.11.2018 09:00:00 (CET)Gourdon, France (7535): visibility: 08.11.2018 09:00:00 - 14.11.2018 09:00:00 (CET)Gourdon, France (7535): Ensoleillement: 08.11.2018 09:00:00 - 14.11.2018 09:00:00 (CET)Gourdon, France (7535): Quantités de précipitations: 08.11.2018 09:00:00 - 14.11.2018 09:00:00 (CET)
Date & Time tt [°C] td [°C] tt 5cm [°C] tt -20cm [°C] tt -100cm [°C] ff [km/h] ff [knt] fx [km/h] fx [knt] dd ppp [hPa] vv [km] sd [min] rr [mm]
14.11.2018 09:00:00 13,1 10,5 9,8 12,6 14,5 10 5 22 12 ESE 1024,7 20 46 0,0
14.11.2018 08:00:00 11,4 10,1 9,2 12,7 14,5 8 5 16 9 ESE 1025,0 20 0 0,0
14.11.2018 07:00:00 10,8 10,0 9,0 12,8 14,5 8 5 16 9 ESE 1024,8 18 0 0,0
14.11.2018 06:00:00 10,6 10,1 8,9 12,9 14,5 6 4 14 8 E 1025,2 13 0 0,0
14.11.2018 05:00:00 10,6 10,1 8,8 13,0 14,5 7 4 13 7 ESE 1025,2 13 0 0,0
14.11.2018 04:00:00 10,6 10,3 7,6 13,1 14,5 7 4 12 7 ESE 1025,6 12 0 0,0
14.11.2018 03:00:00 10,5 10,2 7,5 13,3 14,5 6 3 15 8 E 1026,1 16 0 0,0
14.11.2018 02:00:00 10,6 10,3 8,4 13,3 14,5 7 4 13 7 ESE 1026,4 15 0 0,0
14.11.2018 01:00:00 10,3 10,1 7,1 13,4 14,5 5 3 10 5 E 1026,9 16 0 0,0
14.11.2018 00:00:00 10,1 9,9 7,2 13,6 14,5 6 3 10 5 ESE 1027,5 14 0 0,0
13.11.2018 23:00:00 9,8 9,8 7,4 13,7 14,5 5 3 11 6 ESE 1027,9 11 0 0,0
13.11.2018 22:00:00 8,9 8,4 6,9 13,8 14,4 5 3 8 4 SSE 1028,5 1,1 0 0,0
13.11.2018 21:00:00 10,7 10,5 7,3 13,9 14,4 4 2 8 4 WSW 1028,0 17 0 0,0
13.11.2018 20:00:00 10,7 10,4 7,6 13,9 14,4 5 3 8 5 SSE 1027,9 11 0 0,0
13.11.2018 19:00:00 11,9 10,8 8,7 14,0 14,4 5 3 8 4 E 1027,9 20 0 0,0
13.11.2018 18:00:00 13,0 11,7 11,8 13,9 14,5 3 2 5 3 E 1027,8 20 0 0,0
13.11.2018 17:00:00 13,5 11,7 13,4 13,8 14,4 0 0 8 4 N 1028,0 10 0 0,0
13.11.2018 16:00:00 13,7 11,2 14,3 13,7 14,4 5 3 10 5 NNW 1028,0 20 0 0,0
13.11.2018 15:00:00 13,7 11,0 15,3 13,6 14,4 4 2 13 7 N 1027,8 20 0 0,0
13.11.2018 14:00:00 13,8 11,0 16,9 13,5 14,4 3 2 10 5 NNW 1028,1 20 10 0,0
13.11.2018 13:00:00 12,8 11,5 14,4 13,4 14,4 4 2 10 5 N 1028,4 20 8 0,0
13.11.2018 12:00:00 11,6 11,4 12,5 13,4 14,4 5 3 9 5 N 1029,1 20 0 0,0
13.11.2018 11:00:00 11,0 11,0 11,7 13,3 14,4 0 0 8 5 N 1029,4 0,8 0 0,0
13.11.2018 10:00:00 10,7 10,7 11,0 13,4 14,4 6 4 12 6 NNW 1029,0 0,3 0 0,0
13.11.2018 09:00:00 10,7 10,7 10,8 13,4 14,4 6 4 11 6 NNW 1028,4 0,3 0 0,0
13.11.2018 08:00:00 10,8 10,6 10,7 13,5 14,3 5 3 9 5 NW 1027,5 0,4 0 0,0
13.11.2018 07:00:00 11,0 11,0 11,0 13,5 14,4 4 2 11 6 NNW 1026,9 1,8 0 0,0
13.11.2018 06:00:00 11,2 11,2 11,2 13,5 14,4 8 4 14 7 NNW 1026,2 0,1 0 0,0
13.11.2018 05:00:00 11,4 11,2 11,2 13,6 14,3 4 2 8 4 NNW 1025,7 0,3 0 0,0
13.11.2018 04:00:00 11,5 11,3 11,4 13,6 14,3 5 3 8 4 N 1025,2 1,9 0 0,2
13.11.2018 03:00:00 11,6 11,4 11,3 13,7 14,3 3 1 8 4 ENE 1025,0 3,0 0 0,6
13.11.2018 02:00:00 11,6 11,3 11,4 13,7 14,3 3 1 11 6 NW 1024,6 2,4 0 3,2
13.11.2018 01:00:00 11,8 11,5 11,7 13,7 14,3 7 4 20 11 NNE 1023,5 16 0 0,2
13.11.2018 00:00:00 12,1 11,8 11,9 13,7 14,3 6 4 20 11 NW 1022,5 19 0 0,0
12.11.2018 23:00:00 12,6 11,8 12,3 13,8 14,3 13 7 24 13 NNW 1021,3 17 0 0,8
12.11.2018 22:00:00 13,8 12,4 13,2 13,8 14,3 2 1 9 5 W 1020,0 20 0 0,0
12.11.2018 21:00:00 13,8 12,2 13,2 13,8 14,3 3 2 6 3 E 1019,2 20 0 0,0
12.11.2018 20:00:00 14,4 11,5 13,1 13,8 14,3 0 0 7 4 N 1019,0 20 0 0,0
12.11.2018 19:00:00 14,6 11,2 13,1 13,8 14,3 3 2 8 4 NW 1018,7 20 0 0,0
12.11.2018 18:00:00 15,2 11,4 14,2 13,8 14,3 6 3 10 5 NNW 1018,0 20 0 0,0
12.11.2018 17:00:00 16,2 12,6 15,5 13,6 14,3 5 3 15 8 NNW 1017,4 20 0 0,0
12.11.2018 16:00:00 17,7 12,6 18,0 13,5 14,3 6 4 13 7 NNW 1016,7 20 0 0,0
12.11.2018 15:00:00 19,5 12,5 20,3 13,3 14,3 4 2 12 6 WSW 1016,1 20 1 0,0
12.11.2018 14:00:00 19,2 12,0 20,5 13,1 14,3 4 2 18 10 W 1016,0 20 3 0,0
12.11.2018 13:00:00 19,6 12,1 20,7 13,0 14,3 8 4 29 15 SSW 1015,9 20 7 0,0
12.11.2018 12:00:00 19,3 11,8 19,1 12,8 14,2 13 7 37 20 SSW 1015,9 20 17 0,0
12.11.2018 11:00:00 19,0 11,8 21,0 12,8 14,2 22 12 41 22 S 1015,4 20 58 0,0
12.11.2018 10:00:00 18,3 11,6 19,3 12,8 14,2 18 10 30 16 S 1014,9 20 60 0,0
12.11.2018 09:00:00 16,0 11,8 12,0 12,8 14,2 5 3 15 8 ESE 1014,7 20 49 0,0
12.11.2018 08:00:00 14,7 10,7 12,1 12,8 14,2 5 3 25 13 W 1013,8 20 0 0,0
12.11.2018 07:00:00 16,4 11,1 14,9 12,8 14,2 18 10 43 23 S 1011,6 20 0 0,0
12.11.2018 06:00:00 16,4 11,3 15,0 12,8 14,2 26 14 51 28 SSE 1010,2 20 0 0,0
12.11.2018 05:00:00 16,2 11,6 14,6 12,8 14,2 22 12 38 21 S 1010,5 20 0 0,0
12.11.2018 04:00:00 16,0 11,4 14,6 12,9 14,2 18 10 41 22 SSE 1009,9 20 0 0,0
12.11.2018 03:00:00 16,4 11,5 14,8 12,9 14,2 25 13 51 27 SSE 1009,1 20 0 0,0
12.11.2018 02:00:00 16,0 11,4 14,2 12,9 14,2 18 10 34 18 SSE 1009,4 20 0 0,0
12.11.2018 01:00:00 15,9 11,3 13,3 13,0 14,2 16 9 30 16 SSE 1009,5 20 0 0,0
12.11.2018 00:00:00 15,0 11,2 12,5 13,0 14,2 9 5 19 10 S 1009,8 20 0 0,0
11.11.2018 23:00:00 14,7 10,9 13,4 13,0 14,2 7 4 27 15 SE 1010,5 20 0 0,0
11.11.2018 22:00:00 15,7 10,9 14,6 13,0 14,2 13 7 37 20 SSE 1010,6 20 0 0,0
11.11.2018 21:00:00 16,0 10,7 14,7 13,0 14,2 16 9 35 19 SSE 1010,4 20 0 0,0
11.11.2018 20:00:00 15,9 10,6 14,6 13,0 14,2 11 6 39 21 SSE 1011,1 20 0 0,0
11.11.2018 19:00:00 16,5 10,8 15,0 12,9 14,2 17 9 29 16 SSE 1010,9 20 0 0,0
11.11.2018 18:00:00 16,9 11,4 15,6 12,8 14,2 11 6 22 12 SE 1010,6 20 0 0,0
11.11.2018 17:00:00 17,3 12,6 16,1 12,6 14,2 8 4 13 7 SE 1010,6 20 0 0,0
11.11.2018 16:00:00 18,6 12,8 19,1 12,5 14,2 5 3 17 9 S 1010,5 20 7 0,0
11.11.2018 15:00:00 18,6 13,0 20,1 12,3 14,2 6 3 27 15 SW 1010,3 20 1 0,0
11.11.2018 14:00:00 18,4 12,2 19,1 12,0 14,2 16 9 36 20 S 1009,8 20 16 0,0
11.11.2018 13:00:00 18,1 11,2 19,6 11,9 14,2 15 8 41 22 SSE 1010,3 20 39 0,0
11.11.2018 12:00:00 17,5 10,1 17,4 11,8 14,2 19 10 32 17 SE 1010,7 20 43 0,0
11.11.2018 11:00:00 15,2 10,4 17,0 11,8 14,2 7 4 21 11 ESE 1011,4 17 31 0,0
11.11.2018 10:00:00 14,2 9,8 13,9 11,8 14,2 13 7 29 15 S 1011,3 20 48 0,0
11.11.2018 09:00:00 13,0 9,6 9,6 11,9 14,2 14 8 29 15 SSE 1010,8 20 49 0,0
11.11.2018 08:00:00 10,9 9,3 9,1 11,9 14,2 16 9 28 15 SE 1010,3 20 0 0,0
11.11.2018 07:00:00 10,3 9,2 8,5 12,0 14,2 13 7 21 12 SE 1010,8 20 0 0,0
11.11.2018 06:00:00 10,9 9,3 9,1 12,0 14,2 17 9 34 18 SSE 1010,6 20 0 0,0
11.11.2018 05:00:00 10,0 9,1 8,7 12,1 14,2 14 8 25 14 SSE 1010,8 20 0 0,0
11.11.2018 04:00:00 10,1 8,9 8,7 12,1 14,2 12 6 20 11 SE 1011,3 20 0 0,0
11.11.2018 03:00:00 10,3 8,9 8,7 12,1 14,2 8 4 16 9 SE 1011,5 20 0 0,0
11.11.2018 02:00:00 10,7 9,8 10,0 12,2 14,2 9 5 16 9 SSE 1011,5 20 0 0,0
11.11.2018 01:00:00 10,5 9,9 10,0 12,2 14,2 10 6 16 9 SE 1011,3 20 0 0,0
11.11.2018 00:00:00 10,5 10,3 10,2 12,2 14,2 6 3 17 9 SSE 1011,7 1,7 0 3,2
10.11.2018 23:00:00 10,7 10,4 10,1 12,2 14,2 8 4 31 17 WNW 1011,1 5 0 0,2
10.11.2018 22:00:00 11,9 10,5 10,1 12,3 14,2 9 5 21 12 S 1008,8 20 0 0,2
10.11.2018 21:00:00 11,7 9,9 10,2 12,3 14,2 6 4 26 14 S 1009,0 19 0 0,2
10.11.2018 20:00:00 11,3 10,0 9,9 12,3 14,2 13 7 22 12 SSE 1008,6 20 0 0,0
10.11.2018 19:00:00 11,1 9,5 10,0 12,3 14,2 6 4 18 10 SE 1008,7 20 0 0,0
10.11.2018 18:00:00 10,9 10,3 9,7 12,3 14,2 7 4 15 8 S 1008,9 20 7 0,0
10.11.2018 17:00:00 11,5 11,2 11,4 12,2 14,3 8 4 14 8 SSE 1008,7 20 3 0,0
10.11.2018 16:00:00 11,7 10,9 11,5 12,0 14,2 6 4 23 12 WNW 1008,7 20 0 1,0
10.11.2018 15:00:00 12,6 11,5 12,2 12,0 14,2 14 7 29 15 SSW 1008,0 3,5 0 0,6
10.11.2018 14:00:00 13,3 11,0 12,6 11,8 14,2 15 8 33 18 SSW 1007,8 18 0 0,4
10.11.2018 13:00:00 14,2 10,2 14,7 11,8 14,2 12 6 34 18 S 1007,5 20 0 0,0
10.11.2018 12:00:00 13,6 10,0 11,8 11,8 14,3 22 12 42 23 SSE 1007,2 20 0 0,0
10.11.2018 11:00:00 12,8 9,6 11,4 11,7 14,3 20 11 42 23 SSE 1008,1 20 0 0,2
10.11.2018 10:00:00 13,1 9,3 11,2 11,7 14,2 22 12 39 21 SSE 1008,2 20 7 0,0
10.11.2018 09:00:00 11,9 9,3 10,5 11,7 14,3 18 10 39 21 SSE 1008,5 20 0 0,0
10.11.2018 08:00:00 11,3 9,4 10,1 11,7 14,3 13 7 31 17 SSE 1008,8 20 0 0,0
10.11.2018 07:00:00 11,3 9,6 10,1 11,7 14,3 23 12 41 22 SSE 1007,6 18 0 0,6
10.11.2018 06:00:00 10,8 9,4 9,6 11,7 14,3 17 9 32 17 SSE 1008,5 20 0 0,2
10.11.2018 05:00:00 10,4 9,2 9,5 11,7 14,3 14 8 25 13 SSE 1009,0 20 0 1,2
10.11.2018 04:00:00 11,4 7,9 9,8 11,7 14,3 13 7 39 21 S 1009,3 20 0 0,0
10.11.2018 03:00:00 10,9 8,3 10,1 11,7 14,3 23 12 38 20 SSE 1008,9 20 0 0,0
10.11.2018 02:00:00 10,5 8,1 9,7 11,7 14,3 18 10 34 19 S 1010,3 20 0 0,0
10.11.2018 01:00:00 10,2 8,1 9,5 11,8 14,3 9 5 21 12 S 1011,1 20 0 0,0
10.11.2018 00:00:00 10,0 8,1 9,0 11,8 14,3 11 6 22 12 SSE 1011,5 20 0 0,0
09.11.2018 23:00:00 9,5 8,1 8,8 11,9 14,3 11 6 31 17 S 1012,5 20 0 0,0
09.11.2018 22:00:00 9,4 8,2 8,3 12,0 14,3 21 11 32 17 SE 1012,1 20 0 0,0
09.11.2018 21:00:00 9,5 8,1 8,3 12,0 14,3 10 6 23 13 SSE 1013,1 20 0 0,0
09.11.2018 20:00:00 9,2 8,3 8,2 12,1 14,3 9 5 16 9 SSE 1013,5 20 0 0,0
09.11.2018 19:00:00 9,8 8,6 8,7 12,1 14,3 11 6 17 9 S 1013,9 20 0 0,0
09.11.2018 18:00:00 10,4 8,5 9,0 12,0 14,3 10 5 15 8 SSW 1013,7 20 0 0,0
09.11.2018 17:00:00 11,7 8,9 10,5 11,9 14,4 6 3 10 5 S 1013,5 20 7 0,0
09.11.2018 16:00:00 12,1 10,0 12,4 11,7 14,4 0 0 13 7 N 1013,9 20 0 0,0
09.11.2018 15:00:00 12,8 10,2 13,9 11,5 14,4 6 3 13 7 NNW 1014,4 20 8 0,0
09.11.2018 14:00:00 13,4 10,6 14,4 11,4 14,4 5 3 11 6 NW 1014,4 20 8 0,0
09.11.2018 13:00:00 12,2 9,4 14,8 11,1 14,4 7 4 15 8 WNW 1015,2 20 36 0,0
09.11.2018 12:00:00 11,7 9,6 12,8 11,0 14,4 0 0 6 3 N 1015,2 20 12 0,0
09.11.2018 11:00:00 10,4 9,2 14,1 11,0 14,4 3 2 11 6 NW 1015,8 20 17 0,0
09.11.2018 10:00:00 10,5 8,8 8,0 11,0 14,4 0 0 8 4 N 1015,5 20 41 0,0
09.11.2018 09:00:00 8,3 8,0 6,7 11,1 14,4 2 1 7 4 N 1015,6 20 0 0,0
09.11.2018 08:00:00 8,2 8,1 6,5 11,1 14,4 3 2 10 5 W 1015,5 20 0 0,0
09.11.2018 07:00:00 7,2 7,1 5,9 11,1 14,4 3 2 9 5 WSW 1015,2 19 0 0,0
09.11.2018 06:00:00 6,3 5,9 5,6 11,2 14,4 5 3 11 6 SSE 1014,5 13 0 0,0
09.11.2018 05:00:00 6,9 6,8 4,8 11,3 14,4 0 0 9 5 N 1013,4 14 0 0,0
09.11.2018 04:00:00 6,7 6,3 3,8 11,4 14,4 2 1 5 3 ESE 1012,8 13 0 0,0
09.11.2018 03:00:00 7,0 6,4 5,4 11,5 14,5 0 0 6 3 N 1012,6 20 0 0,0
09.11.2018 02:00:00 7,6 7,0 5,5 11,6 14,5 3 2 9 5 E 1012,5 20 0 0,0
09.11.2018 01:00:00 7,4 6,5 5,5 11,6 14,5 0 0 6 3 N 1013,0 20 0 0,0
09.11.2018 00:00:00 8,8 6,2 5,6 11,7 14,5 0 0 14 7 N 1012,9 20 0 0,0
08.11.2018 23:00:00 10,4 6,7 8,1 11,8 14,5 6 4 15 8 ESE 1012,7 20 0 0,0
08.11.2018 22:00:00 10,5 6,6 6,9 11,9 14,5 5 3 14 7 ESE 1012,8 20 0 0,0
08.11.2018 21:00:00 9,7 6,0 6,9 12,0 14,5 6 3 11 6 ESE 1013,2 20 0 0,0
08.11.2018 20:00:00 10,4 6,2 7,8 12,0 14,5 6 4 16 8 ESE 1013,4 20 0 0,0
08.11.2018 19:00:00 11,1 6,6 8,6 12,0 14,5 8 4 13 7 SE 1013,6 20 0 0,0
08.11.2018 18:00:00 10,9 7,4 9,4 12,0 14,5 9 5 15 8 SE 1013,4 20 2 0,0
08.11.2018 17:00:00 12,2 7,1 11,2 11,8 14,5 5 3 16 8 E 1013,2 20 5 0,0
08.11.2018 16:00:00 13,5 7,3 13,8 11,7 14,5 6 3 18 10 E 1013,9 20 11 0,0
08.11.2018 15:00:00 13,7 6,3 14,4 11,5 14,6 9 5 21 11 SE 1014,4 20 26 0,0
08.11.2018 14:00:00 13,0 7,0 15,0 11,4 14,6 9 5 19 11 E 1015,3 20 45 0,0
08.11.2018 13:00:00 11,6 8,1 13,1 11,3 14,6 8 5 16 9 ESE 1016,5 20 0 0,0
08.11.2018 12:00:00 10,4 8,5 12,4 11,2 14,6 5 3 9 5 ENE 1018,1 20 0 0,0
08.11.2018 11:00:00 9,8 7,9 10,3 11,2 14,6 5 3 14 8 ESE 1019,1 19 0 0,0
08.11.2018 10:00:00 8,1 7,8 7,7 11,2 14,6 3 2 13 7 ESE 1019,9 19 0 0,0
08.11.2018 09:00:00 7,2 7,1 7,0 11,3 14,6 5 3 11 6 ESE 1020,1 17 8 0,0

tt = Température de l'air
td = dewpoint
tt 5cm = Température de l'air 5cm
tt -20cm = Température de l'air -20cm
tt -100cm = Température de l'air -100cm
ff = Vitesse du vent
fx = gusts
dd = Direction du vent
ppp = reduced air pressure
vv = visibility
sd = Ensoleillement
rr = Quantités de précipitations

stations d'obs. à proximité